Location: 22
(39.7117°N, 89.5929°W)
Time: 19:21:32
(UTC-05:00)

Vanguard 3 - Pass Details

Date: 30 January 2023
Orbit: 508 x 3249 km, 33.4° (Epoch: 30 March)

Event Time Altitude Azimuth Distance (km) Brightness Sun altitude
Rises 22:13:40 0° 266° (W) 5,438 11.8 -56.1°
Reaches altitude 10° 22:16:43 10° 264° (W) 4,740 11.3 -56.6°
Enters shadow 22:23:29 38° 254° (WSW) 3,510 10.3 -57.7°
Maximum altitude 22:31:24 70° 184° (S) 3,103 - -58.9°
Drops below altitude 10° 22:51:14 10° 107° (ESE) 6,148 - -61.7°
Sets 22:55:51 0° 105° (ESE) 7,060 - -62.3°
